Year,Month,Day,Hour,Minute,Value (Times are PST for temperature in C)
2016,04,27,00,00,10.80
2016,04,27,00,01,10.70
2016,04,27,00,02,10.70
2016,04,27,00,03,10.70
2016,04,27,00,04,10.70
2016,04,27,00,05,10.70
2016,04,27,00,06,10.70
2016,04,27,00,07,10.70
2016,04,27,00,08,10.70
2016,04,27,00,09,10.70
2016,04,27,00,10,10.70
2016,04,27,00,11,10.70
2016,04,27,00,12,10.70
2016,04,27,00,13,10.70
2016,04,27,00,14,10.70
2016,04,27,00,15,10.70
2016,04,27,00,16,10.70
2016,04,27,00,17,10.70
2016,04,27,00,18,10.70
2016,04,27,00,19,10.70
2016,04,27,00,20,10.60
2016,04,27,00,21,10.60
2016,04,27,00,22,10.60
2016,04,27,00,23,10.60
2016,04,27,00,24,10.60
2016,04,27,00,25,10.60
2016,04,27,00,26,10.60
2016,04,27,00,27,10.60
2016,04,27,00,28,10.60
2016,04,27,00,29,10.60
2016,04,27,00,30,10.60
2016,04,27,00,31,10.60
2016,04,27,00,32,10.60
2016,04,27,00,33,10.60
2016,04,27,00,34,10.60
2016,04,27,00,35,10.50
2016,04,27,00,36,10.50
2016,04,27,00,37,10.50
2016,04,27,00,38,10.50
2016,04,27,00,39,10.40
2016,04,27,00,40,10.40
2016,04,27,00,41,10.40
2016,04,27,00,42,10.40
2016,04,27,00,43,10.40
2016,04,27,00,44,10.40
2016,04,27,00,45,10.40
2016,04,27,00,46,10.40
2016,04,27,00,47,10.40
2016,04,27,00,48,10.40
2016,04,27,00,49,10.50
2016,04,27,00,50,10.50
2016,04,27,00,51,10.50
2016,04,27,00,52,10.50
2016,04,27,00,53,10.50
2016,04,27,00,54,10.40
2016,04,27,00,55,10.40
2016,04,27,00,56,10.40
2016,04,27,00,57,10.40
2016,04,27,00,58,10.40
2016,04,27,00,59,10.30
2016,04,27,01,00,10.30
2016,04,27,01,01,10.30
2016,04,27,01,02,10.30
2016,04,27,01,03,10.30
2016,04,27,01,04,10.30
2016,04,27,01,05,10.30
2016,04,27,01,06,10.30
2016,04,27,01,07,10.20
2016,04,27,01,08,10.20
2016,04,27,01,09,10.20
2016,04,27,01,10,10.20
2016,04,27,01,11,10.20
2016,04,27,01,12,10.20
2016,04,27,01,13,10.20
2016,04,27,01,14,10.20
2016,04,27,01,15,10.20
2016,04,27,01,16,10.20
2016,04,27,01,17,10.20
2016,04,27,01,18,10.20
2016,04,27,01,19,10.20
2016,04,27,01,20,10.20
2016,04,27,01,21,10.20
2016,04,27,01,22,10.20
2016,04,27,01,23,10.20
2016,04,27,01,24,10.20
2016,04,27,01,25,10.20
2016,04,27,01,26,10.20
2016,04,27,01,27,10.20
2016,04,27,01,28,10.20
2016,04,27,01,29,10.20
2016,04,27,01,30,10.20
2016,04,27,01,31,10.20
2016,04,27,01,32,10.20
2016,04,27,01,33,10.20
2016,04,27,01,34,10.20
2016,04,27,01,35,10.20
2016,04,27,01,36,10.20
2016,04,27,01,37,10.20
2016,04,27,01,38,10.20
2016,04,27,01,39,10.20
2016,04,27,01,40,10.20
2016,04,27,01,41,10.20
2016,04,27,01,42,10.20
2016,04,27,01,43,10.20
2016,04,27,01,44,10.20
2016,04,27,01,45,10.20
2016,04,27,01,46,10.20
2016,04,27,01,47,10.20
2016,04,27,01,48,10.20
2016,04,27,01,49,10.20
2016,04,27,01,50,10.20
2016,04,27,01,51,10.10
2016,04,27,01,52,10.20
2016,04,27,01,53,10.10
2016,04,27,01,54,10.10
2016,04,27,01,55,10.10
2016,04,27,01,56,10.10
2016,04,27,01,57,10.10
2016,04,27,01,58,10.10
2016,04,27,01,59,10.10
2016,04,27,02,00,10.10
2016,04,27,02,01,10.10
2016,04,27,02,02,10.10
2016,04,27,02,03,10.00
2016,04,27,02,04,10.00
2016,04,27,02,05,10.00
2016,04,27,02,06,10.00
2016,04,27,02,07,10.00
2016,04,27,02,08,10.00
2016,04,27,02,09,9.90
2016,04,27,02,10,9.90
2016,04,27,02,11,9.90
2016,04,27,02,12,9.90
2016,04,27,02,13,9.90
2016,04,27,02,14,9.90
2016,04,27,02,15,9.90
2016,04,27,02,16,9.90
2016,04,27,02,17,9.90
2016,04,27,02,18,9.90
2016,04,27,02,19,9.90
2016,04,27,02,20,9.90
2016,04,27,02,21,9.90
2016,04,27,02,22,9.90
2016,04,27,02,23,9.90
2016,04,27,02,24,9.90
2016,04,27,02,25,9.90
2016,04,27,02,26,9.90
2016,04,27,02,27,9.90
2016,04,27,02,28,9.80
2016,04,27,02,29,9.80
2016,04,27,02,30,9.80
2016,04,27,02,31,9.80
2016,04,27,02,32,9.80
2016,04,27,02,33,9.80
2016,04,27,02,34,9.80
2016,04,27,02,35,9.80
2016,04,27,02,36,9.80
2016,04,27,02,37,9.80
2016,04,27,02,38,9.80
2016,04,27,02,39,9.80
2016,04,27,02,40,9.80
2016,04,27,02,41,9.80
2016,04,27,02,42,9.80
2016,04,27,02,43,9.80
2016,04,27,02,44,9.70
2016,04,27,02,45,9.70
2016,04,27,02,46,9.70
2016,04,27,02,47,9.70
2016,04,27,02,48,9.70
2016,04,27,02,49,9.70
2016,04,27,02,50,9.70
2016,04,27,02,51,9.70
2016,04,27,02,52,9.70
2016,04,27,02,53,9.70
2016,04,27,02,54,9.70
2016,04,27,02,55,9.70
2016,04,27,02,56,9.70
2016,04,27,02,57,9.70
2016,04,27,02,58,9.70
2016,04,27,02,59,9.70
2016,04,27,03,00,9.70
2016,04,27,03,01,9.70
2016,04,27,03,02,9.70
2016,04,27,03,03,9.70
2016,04,27,03,04,9.60
2016,04,27,03,05,9.70
2016,04,27,03,06,9.60
2016,04,27,03,07,9.60
2016,04,27,03,08,9.60
2016,04,27,03,09,9.60
2016,04,27,03,10,9.60
2016,04,27,03,11,9.60
2016,04,27,03,12,9.60
2016,04,27,03,13,9.60
2016,04,27,03,14,9.60
2016,04,27,03,15,9.60
2016,04,27,03,16,9.60
2016,04,27,03,17,9.60
2016,04,27,03,18,9.60
2016,04,27,03,19,9.60
2016,04,27,03,20,9.60
2016,04,27,03,21,9.60
2016,04,27,03,22,9.60
2016,04,27,03,23,9.60
2016,04,27,03,24,9.50
2016,04,27,03,25,9.50
2016,04,27,03,26,9.50
2016,04,27,03,27,9.50
2016,04,27,03,28,9.50
2016,04,27,03,29,9.50
2016,04,27,03,30,9.50
2016,04,27,03,31,9.50
2016,04,27,03,32,9.50
2016,04,27,03,33,9.40
2016,04,27,03,34,9.40
2016,04,27,03,35,9.40
2016,04,27,03,36,9.40
2016,04,27,03,37,9.40
2016,04,27,03,38,9.40
2016,04,27,03,39,9.40
2016,04,27,03,40,9.40
2016,04,27,03,41,9.30
2016,04,27,03,42,9.30
2016,04,27,03,43,9.30
2016,04,27,03,44,9.30
2016,04,27,03,45,9.30
2016,04,27,03,46,9.30
2016,04,27,03,47,9.30
2016,04,27,03,48,9.30
2016,04,27,03,49,9.30
2016,04,27,03,50,9.20
2016,04,27,03,51,9.20
2016,04,27,03,52,9.20
2016,04,27,03,53,9.20
2016,04,27,03,54,9.10
2016,04,27,03,55,9.10
2016,04,27,03,56,9.10
2016,04,27,03,57,9.10
2016,04,27,03,58,9.10
2016,04,27,03,59,9.00
2016,04,27,04,00,9.00
2016,04,27,04,01,9.00
2016,04,27,04,02,8.90
2016,04,27,04,03,8.90
2016,04,27,04,04,8.90
2016,04,27,04,05,8.90
2016,04,27,04,06,8.90
2016,04,27,04,07,8.80
2016,04,27,04,08,8.80
2016,04,27,04,09,8.80
2016,04,27,04,10,8.80
2016,04,27,04,11,8.80
2016,04,27,04,12,8.80
2016,04,27,04,13,8.80
2016,04,27,04,14,8.70
2016,04,27,04,15,8.70
2016,04,27,04,16,8.70
2016,04,27,04,17,8.70
2016,04,27,04,18,8.70
2016,04,27,04,19,8.70
2016,04,27,04,20,8.70
2016,04,27,04,21,8.70
2016,04,27,04,22,8.70
2016,04,27,04,23,8.70
2016,04,27,04,24,8.70
2016,04,27,04,25,8.60
2016,04,27,04,26,8.70
2016,04,27,04,27,8.60
2016,04,27,04,28,8.70
2016,04,27,04,29,8.70
2016,04,27,04,30,8.70
2016,04,27,04,31,8.70
2016,04,27,04,32,8.70
2016,04,27,04,33,8.70
2016,04,27,04,34,8.70
2016,04,27,04,35,8.70
2016,04,27,04,36,8.70
2016,04,27,04,37,8.70
2016,04,27,04,38,8.70
2016,04,27,04,39,8.70
2016,04,27,04,40,8.70
2016,04,27,04,41,8.70
2016,04,27,04,42,8.70
2016,04,27,04,43,8.70
2016,04,27,04,44,8.70
2016,04,27,04,45,8.70
2016,04,27,04,46,8.60
2016,04,27,04,47,8.60
2016,04,27,04,48,8.60
2016,04,27,04,49,8.60
2016,04,27,04,50,8.60
2016,04,27,04,51,8.60
2016,04,27,04,52,8.60
2016,04,27,04,53,8.60
2016,04,27,04,54,8.60
2016,04,27,04,55,8.60
2016,04,27,04,56,8.60
2016,04,27,04,57,8.60
2016,04,27,04,58,8.60
2016,04,27,04,59,8.60
2016,04,27,05,00,8.60
2016,04,27,05,01,8.60
2016,04,27,05,02,8.60
2016,04,27,05,03,8.60
2016,04,27,05,04,8.60
2016,04,27,05,05,8.60
2016,04,27,05,06,8.60
2016,04,27,05,07,8.60
2016,04,27,05,08,8.60
2016,04,27,05,09,8.60
2016,04,27,05,10,8.60
2016,04,27,05,11,8.60
2016,04,27,05,12,8.60
2016,04,27,05,13,8.60
2016,04,27,05,14,8.60
2016,04,27,05,15,8.60
2016,04,27,05,16,8.60
2016,04,27,05,17,8.60
2016,04,27,05,18,8.60
2016,04,27,05,19,8.60
2016,04,27,05,20,8.60
2016,04,27,05,21,8.60
2016,04,27,05,22,8.60
2016,04,27,05,23,8.60
2016,04,27,05,24,8.60
2016,04,27,05,25,8.60
2016,04,27,05,26,8.60
2016,04,27,05,27,8.60
2016,04,27,05,28,8.60
2016,04,27,05,29,8.60
2016,04,27,05,30,8.50
2016,04,27,05,31,8.50
2016,04,27,05,32,8.50
2016,04,27,05,33,8.50
2016,04,27,05,34,8.50
2016,04,27,05,35,8.50
2016,04,27,05,36,8.50
2016,04,27,05,37,8.40
2016,04,27,05,38,8.40
2016,04,27,05,39,8.40
2016,04,27,05,40,8.50
2016,04,27,05,41,8.50
2016,04,27,05,42,8.50
2016,04,27,05,43,8.50
2016,04,27,05,44,8.50
2016,04,27,05,45,8.50
2016,04,27,05,46,8.50
2016,04,27,05,47,8.50
2016,04,27,05,48,8.50
2016,04,27,05,49,8.50
2016,04,27,05,50,8.50
2016,04,27,05,51,8.50
2016,04,27,05,52,8.50
2016,04,27,05,53,8.50
2016,04,27,05,54,8.50
2016,04,27,05,55,8.50
2016,04,27,05,56,8.50
2016,04,27,05,57,8.50
2016,04,27,05,58,8.50
2016,04,27,05,59,8.50
2016,04,27,06,00,8.50
2016,04,27,06,01,8.50
2016,04,27,06,02,8.50
2016,04,27,06,03,8.60
2016,04,27,06,04,8.60
2016,04,27,06,05,8.60
2016,04,27,06,06,8.60
2016,04,27,06,07,8.60
2016,04,27,06,08,8.60
2016,04,27,06,09,8.60
2016,04,27,06,10,8.60
2016,04,27,06,11,8.60
2016,04,27,06,12,8.60
2016,04,27,06,13,8.60
2016,04,27,06,14,8.60
2016,04,27,06,15,8.60
2016,04,27,06,16,8.60
2016,04,27,06,17,8.50
2016,04,27,06,18,8.50
2016,04,27,06,19,8.50
2016,04,27,06,20,8.50
2016,04,27,06,21,8.50
2016,04,27,06,22,8.50
2016,04,27,06,23,8.50
2016,04,27,06,24,8.50
2016,04,27,06,25,8.50
2016,04,27,06,26,8.50
2016,04,27,06,27,8.40
2016,04,27,06,28,8.40
2016,04,27,06,29,8.40
2016,04,27,06,30,8.40
2016,04,27,06,31,8.40
2016,04,27,06,32,8.30
2016,04,27,06,33,8.30
2016,04,27,06,34,8.30
2016,04,27,06,35,8.30
2016,04,27,06,36,8.30
2016,04,27,06,37,8.30
2016,04,27,06,38,8.30
2016,04,27,06,39,8.30
2016,04,27,06,40,8.30
2016,04,27,06,41,8.30
2016,04,27,06,42,8.30
2016,04,27,06,43,8.30
2016,04,27,06,44,8.30
2016,04,27,06,45,8.30
2016,04,27,06,46,8.30
2016,04,27,06,47,8.30
2016,04,27,06,48,8.30
2016,04,27,06,49,8.30
2016,04,27,06,50,8.30
2016,04,27,06,51,8.30
2016,04,27,06,52,8.30
2016,04,27,06,53,8.30
2016,04,27,06,54,8.30
2016,04,27,06,55,8.40
2016,04,27,06,56,8.30
2016,04,27,06,57,8.30
2016,04,27,06,58,8.30
2016,04,27,06,59,8.30
2016,04,27,07,00,8.30
2016,04,27,07,01,8.30
2016,04,27,07,02,8.30
2016,04,27,07,03,8.30
2016,04,27,07,04,8.30
2016,04,27,07,05,8.30
2016,04,27,07,06,8.30
2016,04,27,07,07,8.30
2016,04,27,07,08,8.30
2016,04,27,07,09,8.20
2016,04,27,07,10,8.20
2016,04,27,07,11,8.20
2016,04,27,07,12,8.20
2016,04,27,07,13,8.20
2016,04,27,07,14,8.20
2016,04,27,07,15,8.20
2016,04,27,07,16,8.30
2016,04,27,07,17,8.30
2016,04,27,07,18,8.30
2016,04,27,07,19,8.30
2016,04,27,07,20,8.30
2016,04,27,07,21,8.30
2016,04,27,07,22,8.30
2016,04,27,07,23,8.40
2016,04,27,07,24,8.40
2016,04,27,07,25,8.40
2016,04,27,07,26,8.40
2016,04,27,07,27,8.40
2016,04,27,07,28,8.50
2016,04,27,07,29,8.50
2016,04,27,07,30,8.50
2016,04,27,07,31,8.60
2016,04,27,07,32,8.60
2016,04,27,07,33,8.70
2016,04,27,07,34,8.70
2016,04,27,07,35,8.70
2016,04,27,07,36,8.80
2016,04,27,07,37,8.80
2016,04,27,07,38,8.90
2016,04,27,07,39,8.90
2016,04,27,07,40,8.90
2016,04,27,07,41,9.00
2016,04,27,07,42,9.10
2016,04,27,07,43,9.10
2016,04,27,07,44,9.20
2016,04,27,07,45,9.20
2016,04,27,07,46,9.30
2016,04,27,07,47,9.30
2016,04,27,07,48,9.40
2016,04,27,07,49,9.40
2016,04,27,07,50,9.50
2016,04,27,07,51,9.60
2016,04,27,07,52,9.60
2016,04,27,07,53,9.70
2016,04,27,07,54,9.70
2016,04,27,07,55,9.80
2016,04,27,07,56,9.80
2016,04,27,07,57,9.90
2016,04,27,07,58,9.90
2016,04,27,07,59,10.00
2016,04,27,08,00,10.00
2016,04,27,08,01,10.10
2016,04,27,08,02,10.10
2016,04,27,08,03,10.20
2016,04,27,08,04,10.20
2016,04,27,08,05,10.20
2016,04,27,08,06,10.20
2016,04,27,08,07,10.20
2016,04,27,08,08,10.30
2016,04,27,08,09,10.30
2016,04,27,08,10,10.30
2016,04,27,08,11,10.40
2016,04,27,08,12,10.40
2016,04,27,08,13,10.40
2016,04,27,08,14,10.50
2016,04,27,08,15,10.50
2016,04,27,08,16,10.50
2016,04,27,08,17,10.60
2016,04,27,08,18,10.60
2016,04,27,08,19,10.60
2016,04,27,08,20,10.60
2016,04,27,08,21,10.60
2016,04,27,08,22,10.60
2016,04,27,08,23,10.60
2016,04,27,08,24,10.60
2016,04,27,08,25,10.60
2016,04,27,08,26,10.70
2016,04,27,08,27,10.70
2016,04,27,08,28,10.70
2016,04,27,08,29,10.70
2016,04,27,08,30,10.70
2016,04,27,08,31,10.70
2016,04,27,08,32,10.70
2016,04,27,08,33,10.70
2016,04,27,08,34,10.80
2016,04,27,08,35,10.70
2016,04,27,08,36,10.70
2016,04,27,08,37,10.70
2016,04,27,08,38,10.80
2016,04,27,08,39,10.80
2016,04,27,08,40,10.80
2016,04,27,08,41,10.80
2016,04,27,08,42,10.80
2016,04,27,08,43,10.80
2016,04,27,08,44,10.80
2016,04,27,08,45,10.90
2016,04,27,08,46,10.90
2016,04,27,08,47,10.90
2016,04,27,08,48,11.00
2016,04,27,08,49,11.00
2016,04,27,08,50,11.00
2016,04,27,08,51,11.10
2016,04,27,08,52,11.10
2016,04,27,08,53,11.10
2016,04,27,08,54,11.10
2016,04,27,08,55,11.20
2016,04,27,08,56,11.20
2016,04,27,08,57,11.20
2016,04,27,08,58,11.20
2016,04,27,08,59,11.20
2016,04,27,09,00,11.20
2016,04,27,09,01,11.20
2016,04,27,09,02,11.20
2016,04,27,09,03,11.20
2016,04,27,09,04,11.20
2016,04,27,09,05,11.20
2016,04,27,09,06,11.30
2016,04,27,09,07,11.30
2016,04,27,09,08,11.40
2016,04,27,09,09,11.50
2016,04,27,09,10,11.50
2016,04,27,09,11,11.50
2016,04,27,09,12,11.50
2016,04,27,09,13,11.50
2016,04,27,09,14,11.50
2016,04,27,09,15,11.60
2016,04,27,09,16,11.50
2016,04,27,09,17,11.50
2016,04,27,09,18,11.50
2016,04,27,09,19,11.50
2016,04,27,09,20,11.40
2016,04,27,09,21,11.50
2016,04,27,09,22,11.50
2016,04,27,09,23,11.50
2016,04,27,09,24,11.50
2016,04,27,09,25,11.50
2016,04,27,09,26,11.60
2016,04,27,09,27,11.60
2016,04,27,09,28,11.70
2016,04,27,09,29,11.70
2016,04,27,09,30,11.70
2016,04,27,09,31,11.70
2016,04,27,09,32,11.70
2016,04,27,09,33,11.70
2016,04,27,09,34,11.70
2016,04,27,09,35,11.70
2016,04,27,09,36,11.70
2016,04,27,09,37,11.80
2016,04,27,09,38,11.80
2016,04,27,09,39,11.70
2016,04,27,09,40,11.70
2016,04,27,09,41,11.70
2016,04,27,09,42,11.70
2016,04,27,09,43,11.70
2016,04,27,09,44,11.70
2016,04,27,09,45,11.80
2016,04,27,09,46,11.90
2016,04,27,09,47,12.00
2016,04,27,09,48,12.00
2016,04,27,09,49,12.10
2016,04,27,09,50,12.20
2016,04,27,09,51,12.20
2016,04,27,09,52,12.30
2016,04,27,09,53,12.30
2016,04,27,09,54,12.30
2016,04,27,09,55,12.30
2016,04,27,09,56,12.40
2016,04,27,09,57,12.40
2016,04,27,09,58,12.50
2016,04,27,09,59,12.50
2016,04,27,10,00,12.50
2016,04,27,10,01,12.50
2016,04,27,10,02,12.50
2016,04,27,10,03,12.60
2016,04,27,10,04,12.60
2016,04,27,10,05,12.60
2016,04,27,10,06,12.60
2016,04,27,10,07,12.60
2016,04,27,10,08,12.60
2016,04,27,10,09,12.70
2016,04,27,10,10,12.70
2016,04,27,10,11,12.80
2016,04,27,10,12,12.80
2016,04,27,10,13,12.70
2016,04,27,10,14,12.70
2016,04,27,10,15,12.60
2016,04,27,10,16,12.50
2016,04,27,10,17,12.50
2016,04,27,10,18,12.40
2016,04,27,10,19,12.30
2016,04,27,10,20,12.30
2016,04,27,10,21,12.30
2016,04,27,10,22,12.30
2016,04,27,10,23,12.30
2016,04,27,10,24,12.30
2016,04,27,10,25,12.30
2016,04,27,10,26,12.30
2016,04,27,10,27,12.30
2016,04,27,10,28,12.30
2016,04,27,10,29,12.30
2016,04,27,10,30,12.40
2016,04,27,10,31,12.40
2016,04,27,10,32,12.40
2016,04,27,10,33,12.40
2016,04,27,10,34,12.40
2016,04,27,10,35,12.30
2016,04,27,10,36,12.30
2016,04,27,10,37,12.30
2016,04,27,10,38,12.30
2016,04,27,10,39,12.20
2016,04,27,10,40,12.20
2016,04,27,10,41,12.20
2016,04,27,10,42,12.20
2016,04,27,10,43,12.20
2016,04,27,10,44,12.20
2016,04,27,10,45,12.20
2016,04,27,10,46,12.20
2016,04,27,10,47,12.20
2016,04,27,10,48,12.30
2016,04,27,10,49,12.30
2016,04,27,10,50,12.40
2016,04,27,10,51,12.50
2016,04,27,10,52,12.50
2016,04,27,10,53,12.50
2016,04,27,10,54,12.50
2016,04,27,10,55,12.40
2016,04,27,10,56,12.40
2016,04,27,10,57,12.40
2016,04,27,10,58,12.50
2016,04,27,10,59,12.60
2016,04,27,11,00,12.60
2016,04,27,11,01,12.70
2016,04,27,11,02,12.80
2016,04,27,11,03,12.80
2016,04,27,11,04,12.80
2016,04,27,11,05,12.80
2016,04,27,11,06,12.80
2016,04,27,11,07,12.80
2016,04,27,11,08,12.80
2016,04,27,11,09,12.80
2016,04,27,11,10,12.90
2016,04,27,11,11,12.90
2016,04,27,11,12,12.90
2016,04,27,11,13,12.90
2016,04,27,11,14,12.80
2016,04,27,11,15,12.80
2016,04,27,11,16,12.70
2016,04,27,11,17,12.70
2016,04,27,11,18,12.70
2016,04,27,11,19,12.70
2016,04,27,11,20,12.70
2016,04,27,11,21,12.70
2016,04,27,11,22,12.70
2016,04,27,11,23,12.80
2016,04,27,11,24,12.80
2016,04,27,11,25,12.80
2016,04,27,11,26,12.80
2016,04,27,11,27,12.80
2016,04,27,11,28,12.80
2016,04,27,11,29,12.80
2016,04,27,11,30,12.90
2016,04,27,11,31,12.90
2016,04,27,11,32,12.90
2016,04,27,11,33,12.90
2016,04,27,11,34,12.90
2016,04,27,11,35,12.90
2016,04,27,11,36,12.80
2016,04,27,11,37,12.70
2016,04,27,11,38,12.70
2016,04,27,11,39,12.60
2016,04,27,11,40,12.60
2016,04,27,11,41,12.60
2016,04,27,11,42,12.60
2016,04,27,11,43,12.60
2016,04,27,11,44,12.70
2016,04,27,11,45,12.70
2016,04,27,11,46,12.70
2016,04,27,11,47,12.70
2016,04,27,11,48,12.70
2016,04,27,11,49,12.70
2016,04,27,11,50,12.70
2016,04,27,11,51,12.60
2016,04,27,11,52,12.70
2016,04,27,11,53,12.80
2016,04,27,11,54,12.90
2016,04,27,11,55,12.90
2016,04,27,11,56,13.00
2016,04,27,11,57,13.10
2016,04,27,11,58,13.20
2016,04,27,11,59,13.20
2016,04,27,12,00,13.30
2016,04,27,12,01,13.30
2016,04,27,12,02,13.30
2016,04,27,12,03,13.20
2016,04,27,12,04,13.20
2016,04,27,12,05,13.20
2016,04,27,12,06,13.20
2016,04,27,12,07,13.20
2016,04,27,12,08,13.20
2016,04,27,12,09,13.10
2016,04,27,12,10,13.10
2016,04,27,12,11,13.10
2016,04,27,12,12,13.10
2016,04,27,12,13,13.10
2016,04,27,12,14,13.10
2016,04,27,12,15,13.20
2016,04,27,12,16,13.20
2016,04,27,12,17,13.20
2016,04,27,12,18,13.20
2016,04,27,12,19,13.20
2016,04,27,12,20,13.20
2016,04,27,12,21,13.20
2016,04,27,12,22,13.30
2016,04,27,12,23,13.40
2016,04,27,12,24,13.40
2016,04,27,12,25,13.40
2016,04,27,12,26,13.40
2016,04,27,12,27,13.40
2016,04,27,12,28,13.40
2016,04,27,12,29,13.30
2016,04,27,12,30,13.30
2016,04,27,12,31,13.30
2016,04,27,12,32,13.30
2016,04,27,12,33,13.20
2016,04,27,12,34,13.20
2016,04,27,12,35,13.20
2016,04,27,12,36,13.20
2016,04,27,12,37,13.20
2016,04,27,12,38,13.10
2016,04,27,12,39,13.10
2016,04,27,12,40,13.10
2016,04,27,12,41,13.20
2016,04,27,12,42,13.20
2016,04,27,12,43,13.20
2016,04,27,12,44,13.20
2016,04,27,12,45,13.20
2016,04,27,12,46,13.20
2016,04,27,12,47,13.20
2016,04,27,12,48,13.20
2016,04,27,12,49,13.20
2016,04,27,12,50,13.30
2016,04,27,12,51,13.30
2016,04,27,12,52,13.20
2016,04,27,12,53,13.10
2016,04,27,12,54,13.10
2016,04,27,12,55,13.20
2016,04,27,12,56,13.30
2016,04,27,12,57,13.30
2016,04,27,12,58,13.40
2016,04,27,12,59,13.40
2016,04,27,13,00,13.40
2016,04,27,13,01,13.30
2016,04,27,13,02,13.40
2016,04,27,13,03,13.40
2016,04,27,13,04,13.40
2016,04,27,13,05,13.50
2016,04,27,13,06,13.50
2016,04,27,13,07,13.50
2016,04,27,13,08,13.60
2016,04,27,13,09,13.60
2016,04,27,13,10,13.50
2016,04,27,13,11,13.40
2016,04,27,13,12,13.40
2016,04,27,13,13,13.40
2016,04,27,13,14,13.50
2016,04,27,13,15,13.60
2016,04,27,13,16,13.60
2016,04,27,13,17,13.60
2016,04,27,13,18,13.60
2016,04,27,13,19,13.60
2016,04,27,13,20,13.60
2016,04,27,13,21,13.60
2016,04,27,13,22,13.70
2016,04,27,13,23,13.80
2016,04,27,13,24,13.80
2016,04,27,13,25,13.80
2016,04,27,13,26,13.80
2016,04,27,13,27,13.80
2016,04,27,13,28,13.80
2016,04,27,13,29,13.80
2016,04,27,13,30,13.80
2016,04,27,13,31,13.80
2016,04,27,13,32,13.80
2016,04,27,13,33,13.80
2016,04,27,13,34,13.80
2016,04,27,13,35,13.70
2016,04,27,13,36,13.60
2016,04,27,13,37,13.60
2016,04,27,13,38,13.60
2016,04,27,13,39,13.60
2016,04,27,13,40,13.70
2016,04,27,13,41,13.80
2016,04,27,13,42,13.80
2016,04,27,13,43,13.80
2016,04,27,13,44,13.80
2016,04,27,13,45,13.90
2016,04,27,13,46,13.90
2016,04,27,13,47,14.00
2016,04,27,13,48,14.00
2016,04,27,13,49,14.10
2016,04,27,13,50,14.10
2016,04,27,13,51,14.00
2016,04,27,13,52,13.90
2016,04,27,13,53,13.80
2016,04,27,13,54,13.80
2016,04,27,13,55,13.80
2016,04,27,13,56,13.70
2016,04,27,13,57,13.70
2016,04,27,13,58,13.70
2016,04,27,13,59,13.70
2016,04,27,14,00,13.60
2016,04,27,14,01,13.60
2016,04,27,14,02,13.60
2016,04,27,14,03,13.50
2016,04,27,14,04,13.50
2016,04,27,14,05,13.60
2016,04,27,14,06,13.60
2016,04,27,14,07,13.70
2016,04,27,14,08,13.70
2016,04,27,14,09,13.70
2016,04,27,14,10,13.70
2016,04,27,14,11,13.70
2016,04,27,14,12,13.70
2016,04,27,14,13,13.70
2016,04,27,14,14,13.70
2016,04,27,14,15,13.70
2016,04,27,14,16,13.70
2016,04,27,14,17,13.70
2016,04,27,14,18,13.70
2016,04,27,14,19,13.60
2016,04,27,14,20,13.50
2016,04,27,14,21,13.60
2016,04,27,14,22,13.60
2016,04,27,14,23,13.60
2016,04,27,14,24,13.60
2016,04,27,14,25,13.60
2016,04,27,14,26,13.60
2016,04,27,14,27,13.50
2016,04,27,14,28,13.50
2016,04,27,14,29,13.50
2016,04,27,14,30,13.50
2016,04,27,14,31,13.50
2016,04,27,14,32,13.50
2016,04,27,14,33,13.60
2016,04,27,14,34,13.60
2016,04,27,14,35,13.60
2016,04,27,14,36,13.60
2016,04,27,14,37,13.60
2016,04,27,14,38,13.60
2016,04,27,14,39,13.50
2016,04,27,14,40,13.50
2016,04,27,14,41,13.40
2016,04,27,14,42,13.30
2016,04,27,14,43,13.20
2016,04,27,14,44,13.20
2016,04,27,14,45,13.20
2016,04,27,14,46,13.20
2016,04,27,14,47,13.30
2016,04,27,14,48,13.30
2016,04,27,14,49,13.40
2016,04,27,14,50,13.40
2016,04,27,14,51,13.40
2016,04,27,14,52,13.50
2016,04,27,14,53,13.40
2016,04,27,14,54,13.50
2016,04,27,14,55,13.50
2016,04,27,14,56,13.40
2016,04,27,14,57,13.40
2016,04,27,14,58,13.40
2016,04,27,14,59,13.40
2016,04,27,15,00,13.40
2016,04,27,15,01,13.40
2016,04,27,15,02,13.50
2016,04,27,15,03,13.60
2016,04,27,15,04,13.50
2016,04,27,15,05,13.50
2016,04,27,15,06,13.50
2016,04,27,15,07,13.60
2016,04,27,15,08,13.60
2016,04,27,15,09,13.60
2016,04,27,15,10,13.60
2016,04,27,15,11,13.50
2016,04,27,15,12,13.50
2016,04,27,15,13,13.40
2016,04,27,15,14,13.40
2016,04,27,15,15,13.40
2016,04,27,15,16,13.40
2016,04,27,15,17,13.40
2016,04,27,15,18,13.50
2016,04,27,15,19,13.40
2016,04,27,15,20,13.40
2016,04,27,15,21,13.40
2016,04,27,15,22,13.40
2016,04,27,15,23,13.40
2016,04,27,15,24,13.40
2016,04,27,15,25,13.40
2016,04,27,15,26,13.40
2016,04,27,15,27,13.30
2016,04,27,15,28,13.30
2016,04,27,15,29,13.30
2016,04,27,15,30,13.30
2016,04,27,15,31,13.30
2016,04,27,15,32,13.40
2016,04,27,15,33,13.40
2016,04,27,15,34,13.30
2016,04,27,15,35,13.20
2016,04,27,15,36,13.20
2016,04,27,15,37,13.20
2016,04,27,15,38,13.20
2016,04,27,15,39,13.20
2016,04,27,15,40,13.20
2016,04,27,15,41,13.10
2016,04,27,15,42,13.10
2016,04,27,15,43,13.10
2016,04,27,15,44,13.10
2016,04,27,15,45,13.10
2016,04,27,15,46,13.00
2016,04,27,15,47,13.00
2016,04,27,15,48,13.00
2016,04,27,15,49,12.90
2016,04,27,15,50,12.90
2016,04,27,15,51,12.90
2016,04,27,15,52,12.90
2016,04,27,15,53,12.90
2016,04,27,15,54,12.90
2016,04,27,15,55,13.00
2016,04,27,15,56,13.10
2016,04,27,15,57,13.10
2016,04,27,15,58,13.10
2016,04,27,15,59,13.10
2016,04,27,16,00,13.10
2016,04,27,16,01,13.10
2016,04,27,16,02,13.10
2016,04,27,16,03,13.20
2016,04,27,16,04,13.30
2016,04,27,16,05,13.30
2016,04,27,16,06,13.40
2016,04,27,16,07,13.40
2016,04,27,16,08,13.50
2016,04,27,16,09,13.50
2016,04,27,16,10,13.60
2016,04,27,16,11,13.60
2016,04,27,16,12,13.70
2016,04,27,16,13,13.80
2016,04,27,16,14,13.80
2016,04,27,16,15,13.80
2016,04,27,16,16,13.80
2016,04,27,16,17,13.80
2016,04,27,16,18,13.80
2016,04,27,16,19,13.90
2016,04,27,16,20,14.00
2016,04,27,16,21,14.10
2016,04,27,16,22,14.10
2016,04,27,16,23,14.20
2016,04,27,16,24,14.20
2016,04,27,16,25,14.20
2016,04,27,16,26,14.20
2016,04,27,16,27,14.20
2016,04,27,16,28,14.20
2016,04,27,16,29,14.30
2016,04,27,16,30,14.30
2016,04,27,16,31,14.30
2016,04,27,16,32,14.30
2016,04,27,16,33,14.20
2016,04,27,16,34,14.20
2016,04,27,16,35,14.10
2016,04,27,16,36,14.10
2016,04,27,16,37,14.10
2016,04,27,16,38,14.00
2016,04,27,16,39,13.90
2016,04,27,16,40,13.90
2016,04,27,16,41,14.00
2016,04,27,16,42,14.10
2016,04,27,16,43,14.20
2016,04,27,16,44,14.30
2016,04,27,16,45,14.30
2016,04,27,16,46,14.30
2016,04,27,16,47,14.30
2016,04,27,16,48,14.30
2016,04,27,16,49,14.30
2016,04,27,16,50,14.30
2016,04,27,16,51,14.30
2016,04,27,16,52,14.30
2016,04,27,16,53,14.40
2016,04,27,16,54,14.50
2016,04,27,16,55,14.60
2016,04,27,16,56,14.50
2016,04,27,16,57,14.50
2016,04,27,16,58,14.40
2016,04,27,16,59,14.40
2016,04,27,17,00,14.30
2016,04,27,17,01,14.30
2016,04,27,17,02,14.40
2016,04,27,17,03,14.40
2016,04,27,17,04,14.40
2016,04,27,17,05,14.40
2016,04,27,17,06,14.40
2016,04,27,17,07,14.40
2016,04,27,17,08,14.50
2016,04,27,17,09,14.60
2016,04,27,17,10,14.70
2016,04,27,17,11,14.80
2016,04,27,17,12,14.80
2016,04,27,17,13,14.80
2016,04,27,17,14,14.80
2016,04,27,17,15,14.70
2016,04,27,17,16,14.70
2016,04,27,17,17,14.60
2016,04,27,17,18,14.60
2016,04,27,17,19,14.60
2016,04,27,17,20,14.60
2016,04,27,17,21,14.50
2016,04,27,17,22,14.50
2016,04,27,17,23,14.50
2016,04,27,17,24,14.60
2016,04,27,17,25,14.60
2016,04,27,17,26,14.60
2016,04,27,17,27,14.50
2016,04,27,17,28,14.50
2016,04,27,17,29,14.40
2016,04,27,17,30,14.40
2016,04,27,17,31,14.30
2016,04,27,17,32,14.30
2016,04,27,17,33,14.20
2016,04,27,17,34,14.20